| time (UTC) | temp C | wind direction | speed KPH | gust KPH | rain 1hr cm | rain 24hr cm | rain mn cm | humidity % | barometer mb |
| 20260507084016 | 6 | 0.0 | 0.0 | 0.00 | 0.00 | 0.00 | 70 | 1015.6 | |
| 20260507083015 | 6 | 0.0 | 0.0 | 0.00 | 0.00 | 0.00 | 72 | 1015.7 | |
| 20260507082015 | 5 | 0.0 | 0.0 | 0.00 | 0.00 | 0.00 | 74 | 1015.6 | |
| 20260507081015 | 5 | 0.0 | 0.0 | 0.00 | 0.00 | 0.00 | 75 | 1015.5 | |
| 20260507080015 | 4 | 0.0 | 0.0 | 0.00 | 0.00 | 0.00 | 78 | 1015.6 | |
| 20260507075035 | 3 | 0.0 | 0.0 | 0.00 | 0.00 | 0.00 | 80 | 1015.6 | |
| 20260507074015 | 3 | 0.0 | 0.0 | 0.00 | 0.00 | 0.00 | 82 | 1015.8 | |
| 20260507073015 | 3 | 0.0 | 0.0 | 0.00 | 0.00 | 0.00 | 82 | 1015.9 | |
| 20260507072035 | 3 | 0.0 | 0.0 | 0.00 | 0.00 | 0.00 | 82 | 1016.0 | |
| 20260507071015 | 3 | 0.0 | 0.0 | 0.00 | 0.00 | 0.00 | 83 | 1016.1 | |
| 20260507070015 | 3 | 0.0 | 0.0 | 0.00 | 0.00 | 0.00 | 82 | 1016.1 | |
| 20260507065015 | 3 | 0.0 | 0.0 | 0.00 | 0.00 | 0.00 | 82 | 1016.1 | |
| 20260507064017 | 3 | 0.0 | 0.0 | 0.00 | 0.00 | 0.00 | 81 | 1016.2 | |
| 20260507063017 | 3 | 0.0 | 0.0 | 0.00 | 0.00 | 0.00 | 82 | 1016.2 | |
| 20260507062017 | 3 | 0.0 | 0.0 | 0.00 | 0.00 | 0.00 | 81 | 1016.2 | |
| 20260507061017 | 3 | 0.0 | 0.0 | 0.00 | 0.00 | 0.00 | 81 | 1016.3 | |
| 20260507060037 | 3 | 0.0 | 0.0 | 0.00 | 0.00 | 0.00 | 81 | 1016.5 | |
| 20260507055017 | 3 | 0.0 | 0.0 | 0.00 | 0.00 | 0.00 | 80 | 1016.6 | |
| 20260507054017 | 3 | 0.0 | 0.0 | 0.00 | 0.00 | 0.00 | 79 | 1016.5 | |
| 20260507053017 | 3 | 0.0 | 0.0 | 0.00 | 0.00 | 0.00 | 79 | 1016.5 | |
| 20260507052017 | 3 | 0.0 | 0.0 | 0.00 | 0.00 | 0.00 | 77 | 1016.7 | |
| 20260507051017 | 3 | 0.0 | 0.0 | 0.00 | 0.00 | 0.00 | 78 | 1016.4 | |
| 20260507050037 | 4 | 0.0 | 0.0 | 0.00 | 0.00 | 0.00 | 77 | 1016.7 | |
| 20260507045017 | 5 | 0.0 | 0.0 | 0.00 | 0.00 | 0.00 | 77 | 1016.8 | |
| 20260507044017 | 5 | 0.0 | 0.0 | 0.00 | 0.00 | 0.00 | 76 | 1016.8 | |
| 20260507043017 | 5 | 0.0 | 0.0 | 0.00 | 0.00 | 0.00 | 76 | 1016.9 | |
| 20260507042017 | 5 | 0.0 | 0.0 | 0.00 | 0.00 | 0.00 | 77 | 1017.0 | |
| 20260507041017 | 5 | 0.0 | 0.0 | 0.00 | 0.00 | 0.00 | 75 | 1017.1 | |
| 20260507040017 | 5 | 0.0 | 0.0 | 0.00 | 0.00 | 0.00 | 72 | 1017.1 | |
| 20260507035117 | 5 | 0.0 | 0.0 | 0.00 | 0.00 | 0.00 | 69 | 1017.2 | |
| 20260507034017 | 5 | 0.0 | 0.0 | 0.00 | 0.00 | 0.00 | 67 | 1017.2 | |
| 20260507033017 | 6 | 0.0 | 0.0 | 0.00 | 0.00 | 0.00 | 63 | 1017.3 | |
| 20260507032057 | 6 | 0.0 | 0.0 | 0.00 | 0.00 | 0.00 | 61 | 1017.4 | |
| 20260507031037 | 6 | 0.0 | 0.0 | 0.00 | 0.00 | 0.00 | 60 | 1017.6 | |
| 20260507030017 | 7 | 0.0 | 0.0 | 0.00 | 0.00 | 0.00 | 57 | 1017.7 | |
| 20260507025017 | 7 | 0.0 | 0.0 | 0.00 | 0.00 | 0.00 | 54 | 1017.6 | |
| 20260507024017 | 8 | 0.0 | 0.0 | 0.00 | 0.00 | 0.00 | 56 | 1017.6 | |
| 20260507023016 | 7 | 0.0 | 0.0 | 0.00 | 0.00 | 0.00 | 55 | 1017.4 | |
| 20260507022017 | 7 | 0.0 | 0.0 | 0.00 | 0.00 | 0.00 | 55 | 1017.5 | |
| 20260507021017 | 8 | 0.0 | 0.0 | 0.00 | 0.00 | 0.00 | 55 | 1017.5 | |
| 20260507020016 | 8 | 0.0 | 0.0 | 0.00 | 0.00 | 0.00 | 54 | 1017.1 | |
| 20260507015037 | 9 | 0.0 | 0.0 | 0.00 | 0.00 | 0.00 | 50 | 1017.2 | |
| 20260507014016 | 9 | 0.0 | 0.0 | 0.00 | 0.00 | 0.00 | 46 | 1017.1 | |
| 20260507013016 | 10 | 0.0 | 0.0 | 0.00 | 0.00 | 0.00 | 44 | 1016.9 | |
| 20260507012037 | 10 | 0.0 | 0.0 | 0.00 | 0.00 | 0.00 | 43 | 1016.9 | |
| 20260507011017 | 10 | 0.0 | 0.0 | 0.00 | 0.00 | 0.00 | 42 | 1016.9 | |
| 20260507010016 | 11 | 0.0 | 0.0 | 0.00 | 0.00 | 0.00 | 41 | 1017.1 | |
| 20260507005017 | 11 | 0.0 | 0.0 | 0.00 | 0.00 | 0.00 | 40 | 1017.1 | |
| 20260507004016 | 11 | 0.0 | 0.0 | 0.00 | 0.00 | 0.00 | 38 | 1016.9 | |
| 20260507003016 | 12 | 0.0 | 0.0 | 0.00 | 0.00 | 0.00 | 38 | 1017.0 | |
| 20260507002016 | 12 | 0.0 | 0.0 | 0.00 | 0.00 | 0.00 | 37 | 1017.1 | |
| 20260507001056 | 12 | 0.0 | 0.0 | 0.00 | 0.00 | 0.00 | 34 | 1016.9 | |
| 20260507000016 | 13 | 0.0 | 0.0 | 0.00 | 0.00 | 0.00 | 34 | 1017.5 | |
| 20260506235016 | 13 | 0.0 | 0.0 | 0.00 | 0.00 | 0.00 | 35 | 1017.5 | |
| 20260506234056 | 14 | 0.0 | 0.0 | 0.00 | 0.00 | 0.00 | 32 | 1017.5 | |
| 20260506233036 | 14 | 0.0 | 0.0 | 0.00 | 0.00 | 0.00 | 33 | 1017.6 | |
| 20260506232016 | 14 | 0.0 | 0.0 | 0.00 | 0.00 | 0.00 | 33 | 1017.8 | |
| 20260506231016 | 14 | 0.0 | 0.0 | 0.00 | 0.00 | 0.00 | 33 | 1017.9 | |
| 20260506230016 | 13 | 0.0 | 0.0 | 0.00 | 0.00 | 0.00 | 34 | 1017.9 | |
| 20260506225016 | 14 | 0.0 | 0.0 | 0.00 | 0.00 | 0.00 | 32 | 1018.0 | |
| 20260506224036 | 15 | 0.0 | 0.0 | 0.00 | 0.00 | 0.00 | 34 | 1017.8 | |
| 20260506223036 | 15 | 0.0 | 0.0 | 0.00 | 0.00 | 0.00 | 32 | 1017.9 | |
| 20260506222016 | 13 | 0.0 | 0.0 | 0.00 | 0.00 | 0.00 | 34 | 1017.9 | |
| 20260506221016 | 13 | 0.0 | 0.0 | 0.00 | 0.00 | 0.00 | 33 | 1018.1 | |
| 20260506220016 | 14 | 0.0 | 0.0 | 0.00 | 0.00 | 0.00 | 32 | 1017.9 | |
| 20260506215016 | 15 | 0.0 | 0.0 | 0.00 | 0.00 | 0.00 | 33 | 1017.9 | |
| 20260506214016 | 15 | 0.0 | 0.0 | 0.00 | 0.00 | 0.00 | 33 | 1017.8 | |
| 20260506213016 | 13 | 0.0 | 0.0 | 0.00 | 0.00 | 0.00 | 34 | 1017.9 | |
| 20260506212016 | 12 | 0.0 | 0.0 | 0.00 | 0.00 | 0.00 | 36 | 1018.1 | |
| 20260506211016 | 12 | 0.0 | 0.0 | 0.00 | 0.00 | 0.00 | 36 | 1018.2 | |
| 20260506210016 | 13 | 0.0 | 0.0 | 0.00 | 0.00 | 0.00 | 35 | 1018.4 | |
| 20260506205016 | 14 | 0.0 | 0.0 | 0.00 | 0.00 | 0.00 | 34 | 1018.4 | |
| 20260506204016 | 13 | 0.0 | 0.0 | 0.00 | 0.00 | 0.00 | 37 | 1018.5 | |
| 20260506203015 | 12 | 0.0 | 0.0 | 0.00 | 0.00 | 0.00 | 38 | 1018.7 | |
| 20260506202016 | 13 | 0.0 | 0.0 | 0.00 | 0.00 | 0.00 | 36 | 1018.8 | |
| 20260506201016 | 13 | 0.0 | 0.0 | 0.00 | 0.00 | 0.00 | 36 | 1018.9 | |
| 20260506200016 | 12 | 0.0 | 0.0 | 0.00 | 0.00 | 0.00 | 38 | 1018.9 | |
| 20260506195035 | 13 | 0.0 | 0.0 | 0.00 | 0.00 | 0.00 | 37 | 1018.9 | |
| 20260506194016 | 13 | 0.0 | 0.0 | 0.00 | 0.00 | 0.00 | 36 | 1019.0 | |
| 20260506193016 | 12 | 0.0 | 0.0 | 0.00 | 0.00 | 0.00 | 39 | 1019.0 | |
| 20260506192015 | 13 | 0.0 | 0.0 | 0.00 | 0.00 | 0.00 | 37 | 1019.0 | |
| 20260506191015 | 13 | 0.0 | 0.0 | 0.00 | 0.00 | 0.00 | 37 | 1019.0 | |
| 20260506190016 | 13 | 0.0 | 0.0 | 0.00 | 0.00 | 0.00 | 38 | 1019.0 | |
| 20260506185035 | 12 | 0.0 | 0.0 | 0.00 | 0.00 | 0.00 | 39 | 1019.1 | |
| 20260506184015 | 12 | 0.0 | 0.0 | 0.00 | 0.00 | 0.00 | 37 | 1019.1 | |
| 20260506183015 | 13 | 0.0 | 0.0 | 0.00 | 0.00 | 0.00 | 37 | 1019.2 | |
| 20260506182035 | 12 | 0.0 | 0.0 | 0.00 | 0.00 | 0.00 | 38 | 1019.3 | |
| 20260506181015 | 12 | 0.0 | 0.0 | 0.00 | 0.00 | 0.00 | 38 | 1019.4 | |
| 20260506180035 | 12 | 0.0 | 0.0 | 0.00 | 0.00 | 0.00 | 42 | 1019.6 | |
| 20260506175015 | 12 | 0.0 | 0.0 | 0.00 | 0.00 | 0.00 | 42 | 1019.6 | |
| 20260506174015 | 12 | 0.0 | 0.0 | 0.00 | 0.00 | 0.00 | 40 | 1019.6 | |
| 20260506173017 | 11 | 0.0 | 0.0 | 0.00 | 0.00 | 0.00 | 41 | 1019.7 | |
| 20260506172037 | 11 | 0.0 | 0.0 | 0.00 | 0.00 | 0.00 | 39 | 1019.9 | |
| 20260506171017 | 11 | 0.0 | 0.0 | 0.00 | 0.00 | 0.00 | 39 | 1019.7 | |
| 20260506170017 | 11 | 0.0 | 0.0 | 0.00 | 0.00 | 0.00 | 41 | 1019.7 | |
| 20260506165017 | 11 | 0.0 | 0.0 | 0.00 | 0.00 | 0.00 | 42 | 1019.8 | |
| 20260506164017 | 11 | 0.0 | 0.0 | 0.00 | 0.00 | 0.00 | 42 | 1019.9 | |
| 20260506163017 | 11 | 0.0 | 0.0 | 0.00 | 0.00 | 0.00 | 46 | 1020.0 | |
| 20260506162017 | 11 | 0.0 | 0.0 | 0.00 | 0.00 | 0.00 | 43 | 1019.9 | |
| 20260506161057 | 11 | 0.0 | 0.0 | 0.00 | 0.00 | 0.00 | 42 | 1019.9 | |
| 20260506160017 | 12 | 0.0 | 0.0 | 0.00 | 0.00 | 0.00 | 41 | 1019.8 | |
| 20260506155037 | 11 | 0.0 | 0.0 | 0.00 | 0.00 | 0.00 | 44 | 1019.8 | |
| 20260506154017 | 11 | 0.0 | 0.0 | 0.00 | 0.00 | 0.00 | 42 | 1019.8 | |
| 20260506153057 | 11 | 0.0 | 0.0 | 0.00 | 0.00 | 0.00 | 46 | 1019.8 | |
| 20260506152017 | 11 | 0.0 | 0.0 | 0.00 | 0.00 | 0.00 | 44 | 1019.8 | |
| 20260506151057 | 11 | 0.0 | 1.6 | 0.00 | 0.00 | 0.00 | 49 | 1019.9 | |
| 20260506150017 | 11 | 0.0 | 3.2 | 0.00 | 0.00 | 0.00 | 47 | 1019.8 | |
| 20260506145017 | 15 | 0 | 6.4 | 14.5 | 0.00 | 0.00 | 0.00 | 36 | 1019.9 |
| 20260506144017 | 14 | 315 | 4.8 | 9.7 | 0.00 | 0.00 | 0.00 | 40 | 1019.8 |
| 20260506143017 | 14 | 270 | 4.8 | 11.3 | 0.00 | 0.00 | 0.00 | 43 | 1019.8 |
| 20260506142016 | 13 | 293 | 6.4 | 11.3 | 0.00 | 0.00 | 0.00 | 39 | 1019.6 |
| 20260506141016 | 13 | 270 | 3.2 | 6.4 | 0.00 | 0.00 | 0.00 | 39 | 1019.6 |
| 20260506140037 | 13 | 315 | 3.2 | 8.0 | 0.00 | 0.00 | 0.00 | 42 | 1019.5 |
| 20260506135016 | 12 | 270 | 3.2 | 8.0 | 0.00 | 0.00 | 0.00 | 38 | 1019.4 |
| 20260506134036 | 12 | 338 | 3.2 | 6.4 | 0.00 | 0.00 | 0.00 | 42 | 1019.4 |
| 20260506133017 | 12 | 338 | 1.6 | 4.8 | 0.00 | 0.00 | 0.00 | 40 | 1019.4 |
| 20260506132017 | 11 | 315 | 1.6 | 8.0 | 0.00 | 0.00 | 0.00 | 45 | 1019.2 |
| 20260506131016 | 11 | 315 | 3.2 | 4.8 | 0.00 | 0.00 | 0.00 | 42 | 1019.2 |
| 20260506130036 | 11 | 270 | 3.2 | 6.4 | 0.00 | 0.00 | 0.00 | 46 | 1019.0 |
| 20260506125036 | 10 | 293 | 1.6 | 4.8 | 0.00 | 0.00 | 0.00 | 46 | 1019.0 |
| 20260506124016 | 9 | 315 | 3.2 | 6.4 | 0.00 | 0.00 | 0.00 | 49 | 1018.9 |
| 20260506123016 | 8 | 293 | 3.2 | 8.0 | 0.00 | 0.00 | 0.00 | 53 | 1019.0 |
| 20260506122016 | 7 | 293 | 3.2 | 8.0 | 0.00 | 0.00 | 0.00 | 55 | 1019.1 |
| 20260506121016 | 5 | 270 | 3.2 | 6.4 | 0.00 | 0.00 | 0.00 | 63 | 1018.9 |
| 20260506120017 | 2 | 270 | 3.2 | 8.0 | 0.00 | 0.00 | 0.00 | 73 | 1018.6 |
| 20260506115036 | 1 | 293 | 1.6 | 3.2 | 0.00 | 0.00 | 0.00 | 76 | 1018.6 |
| 20260506114502 | 1 | 293 | 1.6 | 1.6 | 0.00 | 0.00 | 0.00 | ||
| 20260506113536 | 1 | 0.0 | 1.6 | 0.00 | 0.00 | 0.00 | |||
| 20260506113039 | 2 | 0.0 | 0.0 | 0.00 | 0.00 | 0.00 | |||
| 20260506112517 | 2 | 0.0 | 0.0 | 0.00 | 0.00 | 0.00 | 73 | ||
| 20260506112016 | 2 | 0.0 | 0.0 | 0.00 | 0.00 | 0.00 | 72 | 1017.9 | |
| 20260506111016 | 2 | 0.0 | 0.0 | 0.00 | 0.00 | 0.00 | 71 | 1017.9 | |
| 20260506110016 | 2 | 0.0 | 0.0 | 0.00 | 0.00 | 0.00 | 70 | 1017.7 | |
| 20260506105016 | 3 | 0.0 | 0.0 | 0.00 | 0.00 | 0.00 | 70 | 1017.6 | |
| 20260506104016 | 3 | 0.0 | 0.0 | 0.00 | 0.00 | 0.00 | 69 | 1017.5 | |
| 20260506103016 | 3 | 0.0 | 0.0 | 0.00 | 0.00 | 0.00 | 69 | 1017.5 | |
| 20260506102016 | 3 | 0.0 | 0.0 | 0.00 | 0.00 | 0.00 | 69 | 1017.4 | |
| 20260506101036 | 3 | 0.0 | 0.0 | 0.00 | 0.00 | 0.00 | 68 | 1017.3 | |
| 20260506100016 | 3 | 0.0 | 0.0 | 0.00 | 0.00 | 0.00 | 68 | 1017.4 | |
| 20260506095036 | 3 | 0.0 | 0.0 | 0.00 | 0.00 | 0.00 | 68 | 1017.4 | |
| 20260506094036 | 3 | 0.0 | 0.0 | 0.00 | 0.00 | 0.00 | 67 | 1017.4 | |
| 20260506093016 | 3 | 0.0 | 0.0 | 0.00 | 0.00 | 0.00 | 67 | 1017.3 | |
| 20260506092016 | 3 | 0.0 | 0.0 | 0.00 | 0.00 | 0.00 | 67 | 1017.2 | |
| 20260506091016 | 3 | 0.0 | 0.0 | 0.00 | 0.00 | 0.00 | 67 | 1017.1 | |
| 20260506090016 | 3 | 0.0 | 0.0 | 0.00 | 0.00 | 0.00 | 66 | 1017.1 | |
| 20260506085016 | 3 | 0.0 | 0.0 | 0.00 | 0.00 | 0.00 | 66 | 1016.8 |